Weather in Petrov Val

Russia / Volgograd Oblast     50°08′16″N   45°12′32″E
temp.,
°C
wind,
m/s
gust,
m/s
humid.,
%
clouds,
%
prec.,
mm/h
press.,
hPa
HPBL,
m
28 february, sun
sun2800:00−5nw7108696 0.1 1008768
03:00−8nnw6118397 0.2 1011545
06:00−10nw610830 0.0 1013508
09:00−10nw69810 0.0 1014505
12:00−8nw577914 0.0 1015547
15:00−6nw587933 0.0 1015602
18:00−8nw378961 0.0 1017323
21:00−9nnw369355 0.0 1019304
1 march, mon
mon100:00−9nw259171 0.0 1020243
03:00−10nnw249146 0.0 1021137
06:00−11nnw24881 0.0 1023156
09:00−10nnw34800 0.0 1025265
12:00−8nnw34720 0.0 1026454
15:00−7nw46750 0.0 1026504
18:00−8nw23860 0.0 102665
21:00−9wnw34910 0.0 102695
2 march, tue
tue200:00−9w36920 0.0 1025136
03:00−8wsw49929 0.0 1023195
06:00−6wsw61289100 0.0 1020297
09:00−3wsw81585100 0.0 1017669
12:00−1wsw101689100 0.2 1014804
15:000wsw101695100 1.8 1010835
18:000w81497100 1.3 1008637
21:000wnw51193100 1.7 1008553
3 march, wed
wed300:00−1nw6119399 0.1 1008604
03:00−3wnw6109586 0.1 1009319
06:00−3wnw6129299 0.1 1009605
09:00−3nw7118994 0.2 1010881
12:00−1nw7985100 0.1 1011925
15:00−1nw8108398 0.3 10121045
18:00−4nw7138986 0.1 1014641
21:00−5nw7148853 0.1 1016676
4 march, thu
thu400:00−6nw6138930 0.0 1018472
03:00−7nw6129127 0.0 1019391
06:00−8nw510938 0.0 1021243
09:00−6wnw59884 0.0 1022346
12:00−2w69847 0.0 1022625
15:00−1wsw6108221 0.0 1021717
18:00−3sw511870 0.0 1019221
21:00−2sw6148216 0.0 1018292